Temp
12 12 12 12 12 13 13 13 13 13 14 14 14 14 14 14 15 15 15 15 15 16 16 16 16 16 16 15 16 16 19 19 19 19 19 18 18 17 16 15 15 14 14 13 14
12 12 12 12 12 13 13 13 13 13 14 14 14 14 15 15 15 15 15 15 15 16 15 16 15 16 15 16 16 17 17 19 18 18 18 18 17 17 17 16 14 15 14 14 14
12 12 12 12 12 13 13 13 13 13 14 14 14 14 15 15 15 15 15 15 16 16 16 16 16 15 16 16 17 18 18 18 18 17 17 18 18 17 17 17 16 14 15 15 14
11 12 12 12 12 13 13 13 13 13 14 14 14 14 15 15 14 15 15 16 16 16 16 16 15 15 16 16 17 17 17 17 18 17 17 18 18 18 17 17 16 15 15 15 14
11 12 12 12 12 13 13 13 13 13 14 14 14 14 14 14 14 15 15 16 16 16 16 15 14 15 16 17 16 17 17 17 17 17 17 17 18 17 17 17 16 14 15 14 14
11 11 12 12 12 12 13 13 13 13 14 14 14 14 14 13 14 15 15 15 16 16 16 15 14 14 16 16 16 17 16 17 17 18 18 17 18 17 17 16 16 15 14 13 12
10 11 11 12 12 12 13 13 13 13 14 14 14 14 14 12 14 14 14 15 15 15 15 16 16 15 15 16 16 16 17 18 18 18 18 18 18 18 17 16 15 15 14 13 12
10 10 11 11 12 12 13 13 13 13 14 14 14 14 13 14 14 14 14 15 15 15 15 16 16 15 15 16 16 17 18 19 19 18 18 18 19 17 16 16 16 14 14 13 12
10 10 11 11 11 12 12 12 13 13 13 13 14 14 13 14 14 14 14 14 15 15 15 15 16 15 16 16 18 18 19 19 19 18 18 18 18 18 17 16 16 15 15 14 14
9 10 10 11 11 11 12 12 13 13 13 13 13 13 14 14 14 14 14 14 14 15 15 15 15 16 17 18 19 20 20 20 19 19 18 18 19 18 17 17 16 14 16 14 14
9 10 10 10 11 11 11 12 12 12 13 13 12 13 14 14 14 14 14 14 14 14 14 14 16 17 18 18 18 18 18 18 19 18 17 18 18 18 18 17 16 15 15 12 11
9 10 10 10 10 11 11 11 12 12 13 13 13 13 14 14 13 14 14 14 13 14 15 15 16 17 16 16 16 17 18 18 18 18 17 18 18 18 18 17 16 15 13 12 11
9 9 10 10 10 10 11 11 12 12 13 13 13 14 13 14 13 13 14 13 14 14 15 16 17 16 15 16 16 17 18 18 18 18 18 18 18 18 18 16 16 16 14 13 11
9 9 9 10 10 10 10 11 11 12 12 14 14 13 12 13 13 13 14 13 14 15 15 16 16 15 16 16 16 18 17 17 17 18 19 18 20 19 19 17 16 15 14 13 12
8 9 9 9 10 9 11 11 11 11 15 14 13 13 12 13 14 13 13 13 14 15 15 17 16 15 15 16 16 18 16 17 17 17 18 19 19 20 19 18 17 16 15 14 12
8 8 9 9 9 9 10 10 10 11 15 14 13 13 13 13 14 13 13 13 14 14 14 15 15 15 16 16 15 16 16 16 17 18 19 20 19 20 19 18 17 16 15 13 12
8 8 8 8 9 9 9 9 10 13 14 14 13 13 14 14 14 13 13 13 14 14 15 15 15 15 15 16 16 16 16 18 20 20 21 19 19 19 18 17 16 16 15 13 12
7 8 8 8 9 9 9 8 11 14 15 13 14 14 15 15 15 14 13 14 14 15 17 17 17 16 16 15 17 17 17 18 19 20 20 18 19 18 17 16 16 15 15 13 12
7 7 8 8 8 8 8 9 12 14 13 13 12 14 15 15 15 14 14 15 15 15 16 17 17 16 15 16 16 17 16 17 18 18 19 19 19 18 17 17 16 15 14 13 13
6 7 7 8 8 8 7 10 12 11 11 11 13 14 15 15 14 15 15 15 15 15 15 16 17 16 15 15 15 16 17 17 17 18 18 20 19 19 17 17 16 15 14 13 12
6 5 7 7 7 7 8 10 11 10 10 11 13 14 15 15 15 15 15 15 15 15 15 15 15 17 15 15 16 16 16 16 17 18 19 18 16 17 17 17 16 15 14 13 13
5 5 6 7 6 6 8 10 10 9 9 10 11 12 13 13 14 15 15 15 14 15 15 15 15 16 16 17 16 16 17 17 17 18 18 18 17 16 17 16 16 15 14 13 12
3 4 5 6 6 8 8 9 8 9 9 10 11 11 11 12 13 14 14 13 13 14 15 15 15 15 16 16 16 15 16 16 16 16 17 17 18 16 16 16 15 15 14 13 12
3 4 3 5 5 6 8 7 7 8 9 9 10 10 10 11 11 12 13 12 13 13 13 14 14 15 17 15 15 16 16 16 16 16 17 18 18 17 17 16 16 14 14 15 14
2 4 4 5 6 6 7 7 8 8 7 8 9 9 10 11 12 11 13 12 12 12 12 13 13 14 15 16 16 16 16 17 16 16 16 17 16 15 16 16 15 14 15 15 14
1 2 3 4 4 5 5 6 7 8 8 8 8 9 10 10 11 12 12 12 13 12 12 12 12 13 14 15 16 16 16 16 16 16 16 17 16 14 15 16 14 13 15 14 14
2 2 3 4 3 4 6 6 6 7 7 7 8 9 9 9 10 9 9 10 10 10 11 12 12 12 14 15 16 16 16 16 16 16 16 17 16 15 15 14 15 13 13 13 12
Height
3174 3175 3177 3176 3177 3177 3178 3179 3179 3179 3179 3179 3180 3180 3180 3180 3181 3181 3181 3182 3182 3183 3184 3186 3188 3190 3191 3194 3191 3189 3190 3191 3194 3194 3196 3197 3198 3199 3198 3197 3196 3195 3196 3196 3194
3174 3175 3176 3177 3177 3177 3178 3179 3179 3179 3179 3180 3180 3181 3181 3182 3182 3182 3182 3182 3182 3183 3184 3186 3189 3191 3195 3196 3194 3193 3187 3190 3194 3198 3198 3199 3199 3199 3198 3197 3195 3195 3194 3194 3194
3173 3175 3176 3176 3177 3177 3179 3179 3179 3179 3179 3180 3180 3181 3182 3182 3184 3183 3182 3181 3182 3183 3184 3186 3189 3192 3196 3197 3196 3194 3188 3192 3197 3199 3199 3198 3198 3198 3197 3194 3195 3195 3193 3193 3193
3173 3174 3175 3175 3176 3177 3178 3178 3179 3179 3180 3180 3180 3181 3182 3184 3188 3183 3183 3182 3183 3183 3185 3187 3190 3195 3196 3198 3197 3196 3195 3197 3198 3199 3199 3198 3198 3197 3197 3197 3197 3196 3193 3192 3192
3171 3172 3173 3174 3175 3176 3177 3177 3178 3179 3179 3180 3180 3180 3182 3185 3184 3183 3183 3184 3183 3184 3186 3188 3193 3196 3197 3198 3199 3198 3199 3199 3199 3199 3199 3198 3197 3198 3197 3197 3194 3195 3192 3191 3192
3169 3170 3171 3172 3173 3174 3176 3176 3177 3178 3178 3179 3179 3180 3182 3185 3182 3183 3183 3184 3185 3185 3187 3189 3193 3194 3196 3198 3199 3198 3199 3199 3199 3198 3198 3196 3196 3196 3195 3194 3195 3193 3192 3193 3193
3166 3168 3169 3171 3172 3173 3174 3174 3175 3176 3177 3178 3179 3179 3181 3182 3181 3182 3183 3185 3185 3186 3188 3189 3190 3194 3196 3198 3198 3197 3199 3197 3197 3197 3197 3195 3193 3194 3194 3192 3194 3192 3193 3194 3193
3163 3165 3167 3168 3169 3171 3172 3173 3173 3175 3175 3177 3177 3179 3181 3180 3180 3181 3183 3184 3186 3187 3188 3189 3190 3192 3194 3196 3196 3198 3197 3194 3192 3195 3195 3195 3191 3193 3192 3193 3194 3192 3191 3191 3191
3161 3162 3164 3165 3167 3168 3170 3171 3171 3172 3173 3175 3176 3178 3182 3179 3179 3181 3182 3184 3186 3187 3188 3190 3190 3194 3195 3195 3194 3193 3192 3189 3190 3193 3195 3195 3192 3191 3193 3192 3193 3190 3189 3189 3188
3158 3159 3161 3163 3164 3166 3167 3169 3170 3171 3172 3174 3175 3180 3178 3178 3177 3180 3181 3183 3185 3186 3189 3190 3192 3193 3193 3193 3188 3185 3186 3187 3191 3193 3193 3193 3191 3191 3190 3192 3192 3190 3187 3187 3186
3154 3156 3158 3160 3162 3163 3166 3167 3171 3171 3169 3173 3175 3175 3174 3175 3177 3178 3180 3183 3184 3186 3190 3190 3193 3190 3189 3190 3189 3190 3190 3190 3190 3191 3192 3190 3190 3189 3188 3189 3190 3189 3185 3186 3186
3150 3152 3154 3157 3159 3161 3163 3164 3166 3167 3167 3168 3169 3170 3171 3173 3175 3176 3179 3183 3184 3187 3189 3191 3190 3188 3189 3190 3190 3191 3190 3189 3189 3189 3190 3188 3186 3186 3186 3186 3188 3188 3184 3186 3185
3146 3148 3150 3153 3156 3158 3160 3161 3163 3165 3166 3166 3166 3167 3170 3172 3175 3176 3178 3181 3185 3187 3188 3187 3187 3186 3189 3190 3190 3189 3189 3188 3189 3188 3186 3185 3180 3181 3183 3184 3184 3184 3184 3184 3183
3142 3144 3146 3149 3154 3155 3157 3159 3162 3163 3165 3164 3162 3164 3167 3170 3173 3175 3175 3182 3184 3185 3186 3186 3186 3186 3188 3188 3189 3187 3186 3189 3188 3187 3181 3183 3179 3177 3179 3181 3181 3183 3182 3183 3183
3138 3140 3142 3146 3150 3152 3155 3157 3160 3163 3160 3159 3158 3158 3164 3169 3171 3172 3173 3178 3181 3183 3185 3183 3184 3185 3186 3187 3188 3187 3187 3188 3187 3185 3183 3179 3179 3173 3176 3178 3180 3182 3181 3182 3180
3134 3136 3139 3142 3145 3149 3152 3156 3160 3164 3155 3155 3155 3156 3161 3164 3169 3171 3172 3176 3179 3181 3181 3182 3182 3183 3184 3185 3186 3187 3187 3186 3184 3181 3176 3173 3176 3174 3172 3176 3179 3180 3180 3179 3179
3130 3133 3135 3138 3141 3146 3150 3154 3160 3153 3152 3153 3153 3155 3159 3161 3166 3167 3169 3172 3175 3178 3178 3179 3180 3181 3182 3184 3185 3186 3186 3180 3175 3169 3164 3169 3173 3174 3174 3176 3178 3179 3179 3178 3179
3127 3129 3131 3135 3138 3143 3148 3153 3152 3147 3149 3149 3152 3154 3156 3159 3162 3164 3167 3169 3172 3174 3172 3173 3173 3176 3179 3181 3182 3182 3183 3178 3171 3163 3166 3172 3167 3170 3173 3175 3175 3176 3177 3178 3179
3123 3125 3128 3131 3135 3140 3146 3150 3147 3145 3146 3150 3151 3152 3153 3156 3160 3162 3163 3166 3168 3171 3173 3170 3172 3174 3177 3178 3181 3178 3180 3179 3176 3171 3167 3163 3163 3166 3169 3173 3174 3175 3176 3178 3179
3119 3122 3124 3128 3132 3137 3142 3142 3144 3143 3145 3146 3149 3150 3150 3153 3157 3158 3161 3162 3165 3168 3170 3170 3171 3172 3175 3176 3177 3177 3177 3176 3174 3170 3166 3155 3160 3160 3166 3169 3172 3175 3176 3178 3177
3117 3120 3122 3125 3129 3133 3136 3140 3142 3141 3143 3147 3147 3148 3149 3150 3153 3155 3157 3159 3162 3165 3168 3170 3172 3170 3173 3173 3172 3173 3173 3173 3170 3165 3161 3156 3166 3162 3164 3167 3170 3174 3176 3176 3175
3115 3122 3119 3122 3128 3130 3133 3137 3137 3140 3140 3145 3145 3147 3149 3152 3152 3153 3155 3157 3159 3163 3165 3167 3169 3168 3168 3167 3169 3169 3168 3169 3167 3167 3163 3160 3158 3161 3165 3166 3168 3172 3173 3174 3173
3114 3117 3116 3119 3126 3129 3132 3133 3133 3139 3140 3143 3145 3146 3147 3150 3153 3153 3154 3152 3157 3161 3163 3164 3166 3166 3166 3166 3164 3166 3166 3166 3167 3167 3164 3162 3157 3161 3161 3167 3166 3169 3171 3170 3171
3112 3118 3116 3116 3121 3121 3127 3129 3132 3135 3138 3140 3143 3143 3146 3148 3150 3151 3152 3153 3156 3160 3160 3161 3163 3163 3156 3163 3164 3162 3163 3163 3164 3164 3161 3157 3155 3157 3159 3161 3163 3166 3167 3167 3168
3112 3115 3114 3117 3119 3121 3124 3127 3130 3132 3134 3136 3139 3141 3144 3147 3148 3150 3152 3154 3155 3155 3159 3162 3161 3161 3159 3158 3159 3159 3158 3158 3160 3161 3159 3154 3157 3158 3152 3158 3162 3163 3163 3164 3165
3108 3113 3113 3116 3114 3119 3120 3123 3126 3130 3132 3134 3137 3139 3142 3144 3146 3149 3151 3152 3154 3155 3157 3159 3159 3159 3156 3156 3155 3155 3156 3157 3155 3157 3156 3154 3149 3151 3153 3156 3160 3161 3160 3161 3162
3105 3107 3110 3113 3114 3118 3119 3121 3124 3126 3129 3131 3134 3137 3139 3142 3143 3143 3143 3145 3149 3153 3155 3157 3157 3157 3155 3154 3152 3152 3154 3154 3154 3153 3153 3152 3153 3154 3152 3153 3157 3159 3159 3158 3160
Wind_Speed
6 5 5 4 4 3 3 3 4 4 4 4 4 4 5 4 4 4 6 5 7 7 7 7 7 8 7 0 2 8 7 8 6 7 8 5 4 5 3 4 4 3 3 2 8
8 6 5 5 5 4 4 3 4 4 5 5 4 4 5 4 4 3 3 4 5 4 5 7 7 9 4 4 4 2 17 10 7 4 3 4 4 3 2 3 4 3 5 5 4
9 8 8 7 7 6 5 4 4 4 4 5 6 6 5 3 1 4 3 2 3 4 5 8 11 9 8 7 6 3 9 10 4 1 4 3 4 3 3 5 2 4 4 6 3
13 11 11 9 9 7 6 6 5 4 4 5 6 7 7 4 1 7 4 3 2 4 5 9 10 7 7 7 7 2 3 5 1 2 4 6 4 4 3 5 2 3 8 9 5
15 14 13 12 10 9 8 7 6 6 6 6 6 6 8 6 10 6 6 5 2 3 7 9 7 7 8 9 8 4 4 4 3 6 7 7 7 6 5 4 10 5 7 7 4
16 15 15 14 13 11 10 9 8 7 7 7 7 7 7 4 12 9 9 7 5 2 5 8 7 10 8 8 9 6 7 7 6 6 8 7 5 5 4 10 6 4 5 9 11
17 17 17 16 14 14 12 10 9 8 8 8 7 8 8 12 9 10 9 9 8 5 4 7 9 9 8 6 12 8 8 8 9 6 7 10 14 2 7 8 4 5 7 10 13
18 19 18 17 16 15 14 12 12 11 9 10 9 8 7 10 9 10 10 8 8 8 7 5 5 8 9 10 10 13 11 14 12 5 5 7 4 7 1 4 4 7 6 11 14
18 19 19 19 18 16 15 13 13 10 10 9 9 10 8 11 11 11 11 8 8 8 7 6 5 6 9 9 12 14 16 17 4 4 6 5 7 5 2 4 7 7 8 10 13
18 17 18 19 19 18 16 14 13 12 10 10 10 8 12 10 14 13 11 10 8 6 5 5 4 7 9 12 15 7 12 9 8 6 5 8 8 7 6 6 7 9 11 11 13
18 18 17 18 18 18 15 14 11 12 14 12 6 13 8 15 11 13 12 10 8 7 6 6 8 12 11 9 10 6 7 8 8 8 9 11 10 10 9 7 8 10 14 11 11
19 18 18 17 17 16 14 13 15 14 12 14 17 15 17 9 11 14 14 11 10 9 9 7 10 9 9 7 6 8 9 10 8 9 9 10 13 12 9 5 7 10 11 11 11
19 18 18 18 17 16 16 16 14 13 13 12 17 19 13 15 10 15 13 14 10 11 11 13 2 10 8 8 8 9 10 7 9 8 14 12 20 9 8 6 6 6 11 10 12
20 18 18 17 17 15 16 15 13 10 8 16 17 19 19 12 14 13 14 12 11 12 12 13 12 8 8 9 8 12 7 7 8 10 13 4 17 10 7 5 6 6 7 9 12
19 18 18 18 16 15 15 14 12 9 7 14 14 21 16 18 8 15 16 15 11 9 11 6 10 9 10 8 7 5 5 8 9 11 13 12 10 6 7 6 3 6 8 9 10
19 19 19 18 17 16 15 14 12 9 11 9 11 18 19 23 11 12 18 16 11 12 13 8 8 9 8 9 9 8 8 11 12 15 18 15 6 15 3 2 3 4 6 9 12
18 19 20 19 22 17 16 15 9 15 11 11 11 16 20 21 20 16 21 21 16 14 15 13 13 9 10 9 10 11 10 16 14 15 10 7 6 14 8 4 5 5 6 11 13
18 19 20 20 19 18 18 16 13 17 12 10 10 14 20 19 22 18 19 22 23 15 11 14 17 17 14 15 12 12 14 18 15 10 6 6 4 1 2 6 5 3 7 12 12
16 18 19 20 20 20 21 18 17 13 8 9 11 13 18 19 17 19 21 23 21 21 16 12 9 10 8 8 12 14 16 16 22 24 19 22 12 6 4 3 3 3 8 12 12
13 15 19 19 20 22 22 24 15 8 13 12 12 14 18 19 18 22 21 21 21 20 17 6 8 9 11 8 11 14 12 13 16 15 16 13 5 6 6 5 6 4 9 12 13
10 7 15 19 21 23 25 22 18 13 16 8 12 9 13 17 19 19 18 11 21 20 18 17 9 9 11 13 14 10 12 17 19 16 12 4 11 7 5 6 4 5 8 11 11
9 5 12 18 21 20 21 18 18 14 13 8 8 11 12 11 13 14 19 16 14 17 19 18 13 16 17 10 12 13 13 13 17 16 18 19 7 12 6 5 5 6 10 11 12
6 7 12 18 15 18 19 20 16 13 14 13 11 12 12 9 10 15 14 9 12 11 11 15 15 17 16 17 19 18 17 17 15 18 15 18 2 11 1 5 5 9 11 10 13
6 2 6 18 15 16 21 19 16 15 14 15 12 12 11 14 13 12 14 10 18 11 18 15 15 17 23 0 6 15 14 16 16 21 19 22 18 6 11 7 5 9 10 9 12
3 6 11 8 14 17 12 13 19 15 16 13 14 12 14 13 14 13 13 13 11 15 15 16 17 18 21 19 14 13 14 14 17 20 24 16 7 28 6 6 5 7 11 10 13
9 6 9 7 12 12 15 16 16 18 11 17 17 14 16 16 15 13 16 15 12 15 16 14 15 15 19 18 17 17 17 18 16 17 23 24 9 6 6 5 3 6 13 14 16
9 10 9 10 9 10 13 13 14 15 16 9 15 16 17 15 16 15 15 15 6 9 13 15 14 15 17 19 22 18 19 19 19 18 20 18 15 2 2 0 7 3 11 11 17
Wind_Direction
190 191 186 181 180 179 191 186 183 181 179 160 162 157 153 150 160 195 223 221 222 225 213 199 188 162 130 212 129 181 176 131 104 69 71 51 38 30 19 15 18 52 71 130 8
211 205 211 199 195 196 205 207 199 191 198 198 195 189 163 162 155 191 216 228 236 222 192 181 168 157 154 175 191 220 292 101 102 95 38 20 31 33 30 12 336 332 314 331 355
225 221 222 217 211 206 213 215 217 205 198 210 212 217 199 183 131 225 218 219 218 200 174 172 166 163 175 181 227 272 117 103 97 82 17 21 352 351 327 286 326 219 314 325 323
234 229 233 225 221 219 220 222 222 217 214 213 213 216 215 178 156 242 219 222 208 174 161 160 165 185 174 192 210 193 108 128 121 8 342 328 327 325 312 326 269 213 284 315 311
239 236 239 239 229 225 230 228 224 223 219 218 215 213 211 198 246 243 223 229 227 160 159 159 180 191 185 206 205 198 222 226 281 305 305 310 301 285 274 277 283 191 293 285 248
243 241 239 240 241 232 228 232 228 224 219 219 216 214 204 210 242 236 225 225 225 180 166 164 195 200 201 205 204 219 242 253 268 289 320 309 302 301 268 261 243 272 258 197 193
245 246 244 239 239 239 238 235 230 228 220 218 217 214 212 230 231 224 224 220 218 202 204 208 204 183 244 230 238 247 263 266 263 265 290 305 251 306 269 245 220 245 208 198 197
245 247 246 246 241 241 239 236 234 229 225 221 217 218 214 227 229 224 221 220 219 217 215 216 201 213 232 240 251 246 250 259 206 265 266 308 51 3 296 206 218 195 227 199 197
244 247 247 248 247 245 246 245 247 243 233 226 218 222 240 226 227 223 219 219 219 222 224 224 207 225 241 241 246 229 247 231 203 269 257 296 324 352 343 226 225 239 232 237 259
247 244 247 248 249 249 249 250 251 253 239 230 225 224 240 228 226 222 216 213 219 222 224 213 221 230 236 229 248 273 213 247 251 256 267 270 279 305 291 264 244 225 251 246 255
247 244 243 246 246 250 251 255 267 285 239 199 232 208 223 225 228 221 213 209 209 210 203 231 221 222 226 233 272 271 275 276 266 252 268 270 283 292 283 263 246 229 266 226 217
243 242 239 240 241 243 245 242 245 237 248 239 230 219 226 223 217 216 208 199 201 204 207 224 225 228 230 249 258 255 259 259 263 251 270 276 276 276 276 252 245 251 247 214 210
241 239 238 235 235 233 234 238 239 241 250 253 234 227 226 214 201 213 203 190 212 209 220 226 204 222 235 245 249 249 254 273 267 273 280 269 280 240 243 241 257 255 245 214 217
238 236 234 231 230 227 228 226 227 230 241 232 237 228 211 198 218 206 195 191 208 217 224 239 245 235 222 233 244 275 219 254 272 280 290 287 297 231 215 264 244 260 225 217 219
234 230 228 225 227 217 219 216 209 191 256 181 188 215 206 194 209 199 195 201 200 219 202 227 218 224 222 228 239 267 264 267 274 277 281 276 247 246 230 272 217 281 239 192 209
232 228 223 219 218 218 208 202 185 194 238 192 209 206 189 195 203 193 197 198 212 222 231 234 213 215 226 235 223 244 270 270 269 265 259 250 263 291 36 68 317 275 210 187 170
230 227 222 214 215 204 199 184 197 225 199 204 206 195 195 200 200 197 194 201 202 199 217 223 232 225 212 229 233 237 265 264 243 232 245 139 226 284 308 296 276 246 210 176 168
226 225 223 216 210 200 192 183 229 216 210 188 179 195 200 198 199 206 203 210 214 220 259 216 212 221 232 226 236 241 253 266 292 284 14 197 272 69 233 295 282 220 188 170 170
231 223 220 215 208 198 189 201 212 222 194 195 199 198 200 201 207 204 209 213 217 210 222 220 235 181 206 225 228 254 252 260 273 269 268 279 263 255 205 289 226 195 169 175 182
231 224 220 211 207 197 195 212 226 213 200 183 203 197 199 201 204 204 208 217 216 215 209 250 243 223 220 233 238 238 259 242 238 267 279 262 310 188 159 177 149 165 172 180 190
220 208 216 208 201 196 207 212 225 240 224 209 217 202 209 201 207 207 215 207 210 214 216 221 234 203 215 239 241 226 248 246 266 278 305 230 263 42 137 155 161 190 197 196 224
198 191 227 202 196 208 216 206 226 229 220 218 193 212 209 208 217 228 219 222 203 208 214 214 231 247 236 261 235 246 267 238 250 237 264 285 203 192 197 178 195 218 201 198 197
159 237 213 192 196 214 211 217 226 217 220 221 215 203 213 204 222 215 211 196 209 189 206 215 222 240 245 245 239 244 243 245 249 260 260 280 353 138 130 266 186 192 195 218 212
152 204 223 196 205 204 214 223 227 209 213 214 211 209 215 207 214 209 203 226 208 203 219 199 227 237 255 210 268 215 239 238 236 241 244 240 260 198 192 190 223 190 212 261 245
182 216 186 218 222 209 211 219 214 219 210 219 219 212 213 212 211 212 209 216 224 231 225 218 236 243 255 265 261 253 248 232 235 241 250 266 256 273 123 157 228 218 282 269 234
161 198 208 221 182 196 218 215 206 214 220 222 217 226 216 215 213 215 220 221 226 225 212 220 238 243 260 249 252 253 247 251 260 242 246 260 271 167 235 296 243 228 293 280 233
213 197 181 232 222 202 215 212 201 208 218 206 223 218 214 221 217 212 192 199 212 199 210 224 233 239 251 243 247 239 244 248 247 246 245 260 266 254 163 79 335 297 297 267 220